Terug naar catalogus

AYAME 1 DEB

ActiefHEO
NORAD 38682·DEBRIS·🇯🇵 Japan

Gelanceerd Feb 6, 1979 vanaf Tanegashima Space Center

Loading…

Volgende Passages (komende 24 uur)

TLE

VersSource: Space-Track

Epoch: Sep 13, 2026, 06:17 UTC

1 38682U 79009E   26256.26240760 -.00000101  00000-0  00000-0 0  9993
2 38682   9.7555 298.0372 3725565 151.5339 235.0087  1.68585679 87196

Volg AYAME 1 DEB in realtime met AllMySat

Download on the App Store